• In India
  • List of Countries
  • For 7 days
  • Water Temperature
  • Satellite Maps
  • Weather Map
  • Weather Widgets
  • user-avatar
    Login

    Hourly Weather Prutz

    Today, 21 September, Friday

    Time Temperature Precipitation Wind Pressure Humidity
    00:00 +12°C° 0 mm 2 mps 636 mmHg 79%
    01:00 +10°C° 0 mm 2 mps 636 mmHg 79%
    02:00 +10°C° 0 mm 2 mps 635 mmHg 80%
    03:00 +10°C° 0 mm 2 mps 635 mmHg 81%
    04:00 +10°C° 0 mm 2 mps 635 mmHg 82%
    05:00 +10°C° 0 mm 2 mps 635 mmHg 82%
    06:00 +10°C° 0 mm 2 mps 635 mmHg 81%
    07:00 +13°C° 0 mm 2 mps 635 mmHg 83%
    08:00 +15°C° 0 mm 2 mps 636 mmHg 73%
    09:00 +18°C° 0 mm 1 mps 637 mmHg 63%
    10:00 +21°C° 0 mm 1 mps 637 mmHg 53%
    11:00 +21°C° 0 mm 1 mps 637 mmHg 51%
    12:00 +22°C° 0 mm 1 mps 637 mmHg 49%
    13:00 +21°C° 0 mm 2 mps 637 mmHg 47%
    14:00 +20°C° 0.5 mm 2 mps 637 mmHg 54%
    15:00 +20°C° 0.5 mm 1 mps 636 mmHg 61%
    16:00 +19°C° 0.5 mm 1 mps 636 mmHg 68%
    17:00 +18°C° 0.9 mm 1 mps 635 mmHg 76%
    18:00 +15°C° 0.9 mm 1 mps 635 mmHg 84%
    19:00 +14°C° 0.9 mm 1 mps 635 mmHg 93%
    20:00 +13°C° 0.9 mm 1 mps 635 mmHg 94%
    21:00 +13°C° 0.9 mm 1 mps 636 mmHg 95%
    22:00 +13°C° 0.9 mm 1 mps 636 mmHg 96%
    23:00 +12°C° 0.5 mm 1 mps 636 mmHg 96%

    Tomorrow, 22 September, Saturday

    Time Temperature Precipitation Wind Pressure Humidity
    00:00 +12°C° 0.5 mm 1 mps 636 mmHg 97%
    01:00 +10°C° 0.5 mm 2 mps 636 mmHg 97%
    02:00 +10°C° 0.5 mm 2 mps 636 mmHg 97%
    03:00 +9°C° 0.5 mm 2 mps 636 mmHg 97%
    04:00 +9°C° 0.5 mm 2 mps 636 mmHg 97%
    05:00 +9°C° 0.2 mm 2 mps 636 mmHg 97%
    06:00 +8°C° 0.2 mm 2 mps 636 mmHg 97%
    07:00 +8°C° 0.2 mm 2 mps 636 mmHg 96%
    08:00 +10°C° 0.1 mm 1 mps 637 mmHg 92%
    09:00 +11°C° 0.1 mm 1 mps 637 mmHg 88%
    10:00 +12°C° 0.1 mm 1 mps 638 mmHg 83%
    11:00 +13°C° 0 mm 1 mps 638 mmHg 78%
    12:00 +14°C° 0 mm 1 mps 638 mmHg 73%
    13:00 +15°C° 0 mm 1 mps 638 mmHg 68%
    14:00 +15°C° 0 mm 1 mps 638 mmHg 67%
    15:00 +15°C° 0 mm 2 mps 638 mmHg 67%
    16:00 +15°C° 0 mm 2 mps 638 mmHg 67%
    17:00 +14°C° 0.1 mm 2 mps 638 mmHg 74%
    18:00 +12°C° 0.1 mm 1 mps 638 mmHg 80%
    19:00 +11°C° 0.1 mm 1 mps 637 mmHg 86%
    20:00 +11°C° 0.1 mm 1 mps 638 mmHg 87%
    21:00 +11°C° 0.1 mm 1 mps 638 mmHg 87%
    22:00 +11°C° 0.1 mm 1 mps 638 mmHg 88%
    23:00 +11°C° 0.1 mm 1 mps 638 mmHg 88%

    Day after tomorrow, 23 September, Sunday

    Time Temperature Precipitation Wind Pressure Humidity
    00:00 +11°C° 0.1 mm 1 mps 638 mmHg 87%
    01:00 +11°C° 0.1 mm 1 mps 638 mmHg 87%
    02:00 +11°C° 0.1 mm 1 mps 638 mmHg 86%
    03:00 +11°C° 0.1 mm 1 mps 638 mmHg 85%
    04:00 +12°C° 0.1 mm 1 mps 638 mmHg 84%
    05:00 +12°C° 0.2 mm 1 mps 638 mmHg 84%
    06:00 +12°C° 0.2 mm 1 mps 638 mmHg 85%
    07:00 +12°C° 0.2 mm 1 mps 638 mmHg 85%
    08:00 +13°C° 0.1 mm 1 mps 638 mmHg 83%
    09:00 +14°C° 0.1 mm 1 mps 638 mmHg 80%
    10:00 +15°C° 0.1 mm 2 mps 639 mmHg 78%
    11:00 +17°C° 0 mm 2 mps 639 mmHg 70%
    12:00 +19°C° 0 mm 2 mps 639 mmHg 63%
    13:00 +21°C° 0 mm 2 mps 640 mmHg 56%
    14:00 +21°C° 0.1 mm 2 mps 639 mmHg 57%
    15:00 +21°C° 0.1 mm 2 mps 639 mmHg 59%
    16:00 +21°C° 0.1 mm 2 mps 638 mmHg 60%
    17:00 +19°C° 0.2 mm 2 mps 637 mmHg 71%
    18:00 +16°C° 0.2 mm 2 mps 637 mmHg 81%
    19:00 +14°C° 0.2 mm 2 mps 636 mmHg 91%
    20:00 +14°C° 0.4 mm 2 mps 636 mmHg 93%
    21:00 +14°C° 0.4 mm 2 mps 636 mmHg 94%
    22:00 +13°C° 0.4 mm 3 mps 635 mmHg 95%
    23:00 +13°C° 0.8 mm 3 mps 635 mmHg 95%

    24 September, Monday

    Time Temperature Precipitation Wind Pressure Humidity
    00:00 +13°C° 0.8 mm 3 mps 635 mmHg 95%
    01:00 +13°C° 0.8 mm 3 mps 634 mmHg 95%
    02:00 +12°C° 2 mm 3 mps 635 mmHg 95%
    03:00 +12°C° 2 mm 3 mps 635 mmHg 95%
    04:00 +11°C° 2 mm 3 mps 635 mmHg 95%
    05:00 +10°C° 1 mm 3 mps 636 mmHg 95%
    06:00 +9°C° 1 mm 3 mps 636 mmHg 95%
    07:00 +7°C° 1 mm 3 mps 636 mmHg 95%
    08:00 +7°C° 0.1 mm 3 mps 637 mmHg 93%
    09:00 +7°C° 0.1 mm 3 mps 637 mmHg 91%
    10:00 +7°C° 0.1 mm 3 mps 637 mmHg 88%
    11:00 +7°C° 0 mm 3 mps 638 mmHg 85%
    12:00 +8°C° 0 mm 3 mps 638 mmHg 82%
    13:00 +8°C° 0 mm 3 mps 638 mmHg 79%
    14:00 +8°C° 0 mm 3 mps 638 mmHg 79%
    15:00 +7°C° 0 mm 3 mps 638 mmHg 78%
    16:00 +7°C° 0 mm 3 mps 638 mmHg 77%
    17:00 +5°C° 0 mm 3 mps 639 mmHg 80%
    18:00 +4°C° 0 mm 3 mps 639 mmHg 83%
    19:00 +3°C° 0 mm 3 mps 640 mmHg 86%
    20:00 +3°C° 0 mm 2 mps 640 mmHg 87%
    21:00 +2°C° 0 mm 2 mps 640 mmHg 88%
    22:00 +2°C° 0 mm 2 mps 641 mmHg 89%
    23:00 +1°C° 0 mm 2 mps 641 mmHg 89%

    25 September, Tuesday

    Time Temperature Precipitation Wind Pressure Humidity
    00:00 +1°C° 0 mm 2 mps 641 mmHg 89%
    01:00 -1°C° 0 mm 2 mps 641 mmHg 88%
    02:00 -1°C° 0 mm 2 mps 641 mmHg 87%
    03:00 -1°C° 0 mm 2 mps 641 mmHg 86%
    04:00 -1°C° 0 mm 2 mps 641 mmHg 84%
    05:00 -1°C° 0 mm 2 mps 642 mmHg 81%
    06:00 +1°C° 0 mm 2 mps 642 mmHg 79%
    07:00 +1°C° 0 mm 2 mps 642 mmHg 76%
    08:00 +3°C° 0 mm 2 mps 643 mmHg 65%
    09:00 +5°C° 0 mm 2 mps 643 mmHg 54%
    10:00 +8°C° 0 mm 2 mps 644 mmHg 44%
    11:00 +9°C° 0 mm 2 mps 644 mmHg 40%
    12:00 +10°C° 0 mm 2 mps 645 mmHg 36%
    13:00 +12°C° 0 mm 2 mps 645 mmHg 32%
    14:00 +12°C° 0 mm 2 mps 645 mmHg 33%
    15:00 +12°C° 0 mm 2 mps 644 mmHg 35%
    16:00 +12°C° 0 mm 2 mps 644 mmHg 36%
    17:00 +8°C° 0 mm 2 mps 643 mmHg 46%
    18:00 +7°C° 0 mm 1 mps 643 mmHg 57%
    19:00 +4°C° 0 mm 1 mps 642 mmHg 67%
    20:00 +4°C° 0 mm 1 mps 643 mmHg 65%
    21:00 +3°C° 0 mm 2 mps 643 mmHg 62%
    22:00 +3°C° 0 mm 2 mps 643 mmHg 60%
    23:00 +3°C° 0 mm 2 mps 643 mmHg 62%

    26 September, Wednesday

    Time Temperature Precipitation Wind Pressure Humidity
    00:00 +3°C° 0 mm 2 mps 643 mmHg 64%
    01:00 +4°C° 0 mm 2 mps 643 mmHg 66%
    02:00 +4°C° 0 mm 2 mps 643 mmHg 67%
    03:00 +4°C° 0 mm 2 mps 643 mmHg 67%
    04:00 +4°C° 0 mm 2 mps 643 mmHg 67%
    05:00 +4°C° 0 mm 2 mps 643 mmHg 61%
    06:00 +5°C° 0 mm 2 mps 643 mmHg 56%
    07:00 +6°C° 0 mm 1 mps 643 mmHg 51%
    08:00 +10°C° 0 mm 1 mps 644 mmHg 43%
    09:00 +13°C° 0 mm 1 mps 645 mmHg 34%
    10:00 +16°C° 0 mm 1 mps 646 mmHg 26%
    11:00 +18°C° 0 mm 1 mps 646 mmHg 26%
    12:00 +18°C° 0 mm 2 mps 646 mmHg 27%
    13:00 +19°C° 0 mm 2 mps 646 mmHg 27%
    14:00 +18°C° 0 mm 2 mps 646 mmHg 31%
    15:00 +18°C° 0 mm 2 mps 645 mmHg 35%
    16:00 +17°C° 0 mm 2 mps 645 mmHg 39%
    17:00 +14°C° 0 mm 1 mps 644 mmHg 51%
    18:00 +11°C° 0 mm 1 mps 643 mmHg 62%
    19:00 +8°C° 0 mm 1 mps 642 mmHg 74%
    20:00 +8°C° 0 mm 1 mps 642 mmHg 71%
    21:00 +8°C° 0 mm 1 mps 642 mmHg 68%
    22:00 +7°C° 0 mm 1 mps 642 mmHg 65%
    23:00 +7°C° 0 mm 1 mps 642 mmHg 59%
    Show more